Location: Doverdale
(52.2833°N, 2.2000°W)
Time: 03:42:50
(UTC+00:00)

Geosat - Pass Details

Date: 29 October 2020
Orbit: 763 x 766 km, 108.0° (Epoch: 24 November)

Event Time Altitude Azimuth Distance (km) Brightness Sun altitude
Exits shadow 19:33:07 55° 184° (S) 919 4.2 -26.2°
Drops below altitude 10° 19:37:06 10° 205° (SSW) 2,301 6.6 -26.8°
Sets 19:39:22 0° 207° (SSW) 3,223 7.4 -27.1°
